User: anonymous   Login
Location: Albany
(35.0000°S, 118.0000°E)
Time: 08:45:18
(UTC-04:00)
Language:

Cosmos 1933 - Orbit

View from above orbital plane
View from above orbital plane
View from above satellite
View from above satellite

Ground track
Ground track

The orbit data is extracted from the following two-line orbital elements,

1 18958U 88020A   14296.77751553  .00003390  00000-0  26339-3 0  4649
2 18958 082.5281 316.2888 0011163 337.2731 022.7998 15.00984759446260
Epoch (UTC): 23 October 2014 18:39:37
Eccentricity: 0.0011163
inclination: 82.5281°
perigee height: 556 km
apogee height: 571 km
right ascension of ascending node: 316.2888°
argument of perigee: 337.2731°
revolutions per day: 15.00984759
mean anomaly at epoch: 22.7998°
orbit number at epoch: 44626

The dashed part of the orbit path shows where the satellite is in the earth's shadow,  

DLR